Temp_Advection
nan nan nan nan nan nan nan nan nan nan nan nan nan nan nan nan nan nan nan nan nan nan nan nan nan nan nan nan nan nan nan nan nan nan nan nan nan nan nan nan nan nan nan nan nan
nan -0 -0 -0 -0 -0 -0 -0 -0 -0 0 -0 -0 0 0 0 0 0 0 0 0 0 0 -0 -0 -0 -0 -0 0 -0 -0 -0 -0 -0 -0 -0 0 0 -0 -0 -0 -1 -0 0 nan
nan -0 -0 -0 0 -0 0 -0 -0 0 0 0 0 0 0 0 0 -0 0 1 0 1 0 0 0 -0 -0 -0 0 0 -0 -0 -0 -0 -0 0 -0 0 0 -0 -1 -0 -0 0 nan
nan -0 -0 -0 -0 -0 0 0 -0 -0 0 0 0 -0 0 -0 -0 -0 -0 1 0 0 -0 -0 0 -0 -0 -0 -0 0 -0 -0 -0 -0 0 -0 -0 0 -0 -0 -1 -1 0 0 nan
nan 0 0 -0 -0 -0 -0 0 0 -0 -0 -0 -0 -0 -0 -0 -0 -0 -1 0 0 -0 -0 -0 -0 0 0 0 -0 -0 -0 -1 0 -0 -0 0 0 -0 -0 -1 -1 -0 -0 0 nan
nan -0 0 0 -0 0 -0 0 0 0 0 0 -0 -0 -0 -0 0 -0 0 0 0 -0 -0 -0 0 0 0 0 -0 -0 0 -1 -0 0 0 0 -0 -1 -2 -2 -2 -0 0 0 nan
nan -0 -0 0 -0 0 0 -0 -0 0 0 0 0 -0 -0 0 -0 0 1 0 0 0 -0 -0 -0 0 0 0 -0 0 -0 -1 -0 -0 0 0 -1 -1 -1 -1 -2 -2 0 -0 nan
nan -0 -0 -0 -0 0 0 0 0 -0 -0 -0 0 -0 -0 0 0 -0 0 -0 -0 -0 -0 -0 -0 -0 -0 -0 -0 -0 -0 -0 -1 -0 -0 -0 -0 -0 -0 -1 -1 -3 -1 0 nan
nan -0 -0 -0 -0 -0 0 0 0 0 0 -0 0 -0 -0 -0 -0 -1 -0 -0 -0 -0 -0 -0 -0 -1 -1 -0 -0 -0 -0 -0 -1 -0 -0 -0 -0 -0 -0 -1 -1 -1 -2 -3 nan
nan 0 -0 -0 -0 -0 0 -0 -0 -0 -0 -0 -0 -0 -1 -0 -0 0 0 -0 -0 0 0 -0 -1 -0 -0 0 0 0 0 -0 -0 -0 -0 -1 -1 -0 -1 -0 -1 -1 -1 -2 nan
nan -0 -0 -0 -0 -0 -0 0 0 -0 -1 -1 -0 -0 -1 -0 -0 -1 -1 -0 -1 -1 -1 -0 -1 0 0 -0 -0 0 0 -0 -0 -0 -0 -1 -0 -1 -0 -0 -1 -1 -1 -1 nan
nan -0 -0 0 -0 -0 -0 0 0 0 -0 0 -0 -0 -0 -0 -1 -2 -2 -1 -1 -0 -0 -0 0 0 0 0 0 0 0 -0 -0 -0 0 -0 -0 -0 -0 -0 -0 -0 -1 -1 nan
nan -0 -0 -0 -0 -0 -0 -0 0 0 -0 -0 -0 -0 0 0 -0 -0 -2 -0 -0 -0 -0 0 -0 -0 0 0 -0 -0 0 0 -0 -0 0 0 -0 -0 -0 -0 0 -0 -1 -1 nan
nan 0 -0 -0 0 -0 -0 -0 0 -0 -0 -0 -0 -0 -0 -0 -0 -0 -0 -0 -0 -0 0 -0 -0 -0 -0 -0 -0 -0 -0 0 -0 -0 -0 -0 0 -0 0 -0 -0 -0 -0 -1 nan
nan -0 -0 -0 -0 -0 0 0 0 0 0 -0 -0 -0 -1 -1 -0 -1 -0 -0 -0 -0 0 -0 -0 -0 -0 -0 0 -0 -0 -0 -0 0 -0 -0 -0 -0 -0 -1 -1 -1 -0 -0 nan
nan -0 0 -0 -0 -0 -0 -0 0 -0 -0 -0 -0 -0 -0 -1 -0 -1 -2 -2 -0 -0 -1 -0 -0 -0 -0 0 -0 -0 -0 -0 -0 -0 -0 -0 -0 -0 -1 -1 -1 -1 -0 -0 nan
nan -0 0 -0 -0 -0 -0 0 -0 0 -0 -0 -0 -0 -0 -0 -0 -1 -0 -1 -0 -1 -1 -1 -0 -0 -0 -0 -0 -0 -1 -0 -0 -0 -0 0 -1 0 0 0 -0 -0 -1 -0 nan
nan -0 -0 -0 -0 -0 -0 -0 0 0 -0 0 0 0 -0 0 -0 -0 -0 -0 0 -0 0 0 -0 -0 -0 -0 -0 -0 -0 0 0 -0 -0 -0 -0 -0 0 0 0 0 -0 -0 nan
nan -0 -0 -0 -0 0 -0 -0 0 0 0 -0 0 -0 -0 -0 -0 -0 -1 0 0 0 0 0 -0 -0 -0 0 0 0 0 0 0 -0 -0 -0 -0 -0 -1 -1 -0 -0 -0 -0 nan
nan -0 -0 -0 -0 0 -0 0 0 0 0 0 -0 0 -0 -0 -0 -0 -0 0 0 0 0 0 -0 -0 -0 -0 -0 -0 -0 -0 0 0 -0 -0 -0 0 -1 -1 -0 -0 -0 -0 nan
nan -0 -0 -0 -0 -0 -0 0 0 0 0 -0 0 -0 -0 -0 -0 -0 -0 -0 0 0 -0 -0 0 -1 -0 -0 -0 -0 -0 -0 -0 -0 0 -0 0 0 -0 -0 -0 -0 -0 -0 nan
nan 0 -0 0 -0 -1 0 0 -0 0 0 -0 -0 -0 -0 -0 -0 0 -0 -0 0 0 0 -0 -0 -0 -0 -0 0 -0 0 -0 0 -0 0 0 0 0 0 0 -0 -0 -0 -0 nan
nan 0 0 0 0 -0 0 0 0 0 0 -0 -0 -0 -0 -0 -0 -0 -0 -0 -0 0 0 0 0 -0 -0 -0 -0 -0 -0 0 0 -0 -0 0 -0 0 -0 -0 -0 -0 -0 -0 nan
nan -0 0 0 -0 -0 0 -0 0 0 0 -0 -0 -0 -0 -0 -0 0 0 -0 -0 -0 -0 -0 -0 0 -0 0 -0 -0 -0 -0 -0 -0 -0 -0 -1 -1 -0 -1 -0 -0 -0 -0 nan
nan -0 0 0 0 0 0 0 -0 0 0 0 -0 0 -0 -0 0 0 0 -0 -0 -0 -1 -0 -0 -0 -1 -0 -0 -0 0 0 0 -0 -0 0 0 -0 -0 0 -0 -0 -0 -0 nan
nan -1 -0 0 0 -0 -0 -0 -0 -0 0 0 0 -0 -0 -0 -1 -0 -0 0 0 -0 -0 -0 -0 -0 -0 -0 -0 -0 0 -0 0 -0 0 0 -0 0 0 0 -0 -0 -0 -0 nan
nan nan nan nan nan nan nan nan nan nan nan nan nan nan nan nan nan nan nan nan nan nan nan nan nan nan nan nan nan nan nan nan nan nan nan nan nan nan nan nan nan nan nan nan nan
Wind_Speed
15 18 20 22 21 20 13 9 8 6 7 5 5 6 6 6 8 11 22 20 21 21 27 26 14 14 10 1 2 3 1 4 6 4 6 15 5 24 25 20 22 25 21 26 27
15 17 20 21 20 20 13 8 7 5 7 5 4 7 8 7 7 6 22 23 28 28 27 28 14 14 6 1 2 2 2 6 6 4 13 21 17 22 8 16 18 25 26 18 14
14 17 19 21 19 19 13 8 6 5 7 5 4 7 10 10 3 12 25 31 32 24 17 7 5 8 2 3 2 2 4 4 18 23 21 19 25 25 10 13 23 15 22 13 16
13 16 18 20 19 18 13 7 6 5 7 8 5 7 9 8 4 23 28 38 22 16 8 6 5 3 3 4 3 3 12 14 14 22 20 14 15 11 16 29 31 26 16 16 19
12 15 17 19 18 17 13 8 6 5 6 10 7 5 10 7 12 27 36 22 13 10 10 10 11 6 4 5 7 3 5 17 24 27 20 17 10 10 14 31 28 28 20 14 11
12 15 17 18 18 16 12 8 7 6 5 8 9 4 8 8 23 33 32 10 11 9 11 11 6 8 5 3 1 8 15 21 13 17 11 7 10 11 33 39 21 15 11 16 3
12 14 17 18 16 15 11 7 8 6 3 8 8 3 2 9 25 37 20 11 9 6 7 9 9 9 11 7 12 10 6 9 4 12 5 18 15 18 35 34 37 24 3 14 6
12 14 15 17 16 14 12 6 7 6 2 9 7 2 2 11 23 38 17 8 7 8 5 8 8 8 11 18 9 6 4 7 9 8 11 7 8 22 34 34 33 33 26 3 10
11 13 14 16 15 14 11 4 7 4 2 7 10 3 4 10 27 41 17 17 8 8 8 7 7 6 9 5 5 6 5 5 8 10 8 11 8 16 34 33 32 32 31 26 17
11 13 13 16 15 12 10 0 8 4 1 3 10 3 15 18 20 39 13 16 11 5 4 7 8 3 3 7 5 9 5 5 6 7 11 12 16 16 28 29 26 29 32 31 28
11 12 14 15 15 11 8 2 3 2 16 10 10 4 14 15 14 39 19 7 11 9 5 6 8 9 9 6 6 7 3 6 5 2 7 13 16 17 23 32 33 33 31 32 31
11 12 15 15 13 9 7 3 4 6 9 7 8 11 13 11 13 41 25 10 10 5 8 6 4 6 8 9 7 6 4 6 10 3 2 8 19 11 17 21 26 28 31 35 39
11 11 13 14 11 9 7 1 6 9 4 4 9 10 12 7 9 27 26 7 8 6 5 4 4 11 9 8 18 11 3 9 8 9 2 3 5 24 19 18 27 28 30 36 34
10 12 13 13 8 10 4 2 7 3 4 7 6 9 16 1 5 23 25 8 7 5 4 2 7 8 13 11 11 6 3 15 10 3 3 8 0 19 18 18 23 36 41 38 41
9 10 12 11 9 8 5 3 6 2 3 4 5 7 11 10 10 20 27 8 4 6 4 3 8 7 13 12 8 8 20 8 3 2 3 9 4 7 17 24 29 33 40 38 38
9 10 10 11 9 6 1 5 5 5 4 2 4 7 5 11 9 16 16 16 3 3 5 3 9 2 4 15 4 14 4 2 2 2 4 4 2 6 14 19 20 28 36 39 41
9 10 8 9 7 3 3 6 4 4 1 3 3 4 3 6 7 9 6 9 5 7 9 8 6 6 13 8 5 18 6 4 6 5 1 2 6 2 11 17 15 23 33 36 37
7 9 7 8 5 1 4 4 3 1 0 2 1 0 5 7 4 9 4 7 7 6 4 6 8 9 11 5 6 6 4 4 1 3 4 5 4 2 13 22 26 28 31 34 39
7 7 8 7 4 1 2 3 4 2 2 4 1 4 3 3 2 4 6 3 3 5 5 7 5 4 3 4 6 7 5 3 1 3 2 4 4 3 16 18 27 31 36 40 43
7 3 8 7 4 1 4 3 2 0 3 1 3 0 2 5 4 6 4 3 5 6 2 1 6 2 4 6 9 5 4 5 3 4 4 3 2 4 17 24 22 27 34 39 41
7 3 2 5 3 1 3 4 3 2 1 3 3 3 3 2 3 2 2 2 4 5 5 1 3 7 3 6 4 5 5 4 1 1 2 3 3 2 8 18 19 27 32 37 38
9 4 1 4 3 3 2 4 6 3 2 2 3 3 4 2 3 1 2 4 6 3 4 3 1 5 5 2 2 2 3 3 3 6 0 1 3 2 8 18 21 28 29 39 39
13 5 4 5 1 1 1 2 2 4 3 2 2 1 2 4 3 2 1 2 6 4 5 2 1 4 8 5 5 5 5 3 3 0 1 2 3 3 20 24 25 24 28 36 38
11 3 4 6 3 5 5 4 3 2 4 3 3 3 4 3 3 1 1 2 2 6 6 2 1 5 5 6 2 4 5 6 1 2 3 3 9 11 18 22 29 31 31 37 35
9 4 5 2 2 4 3 5 4 5 2 4 1 2 5 3 3 2 1 3 2 7 3 4 1 1 5 5 2 3 3 5 3 2 2 5 5 7 16 18 25 26 28 35 39
13 9 7 4 9 7 1 6 7 4 6 4 4 6 4 5 6 6 5 3 1 4 3 4 1 1 3 2 5 5 3 4 1 3 3 6 6 8 25 24 24 26 30 32 38
14 17 10 7 4 3 5 7 7 12 2 1 9 5 4 3 8 5 5 7 4 5 1 3 2 2 3 5 4 4 3 2 4 2 2 2 5 19 17 25 26 20 34 34 39
Wind_Direction
6 5 4 5 5 4 13 21 21 29 21 20 28 18 352 292 301 318 2 347 342 332 313 322 329 337 334 18 278 207 72 265 252 255 256 293 245 280 280 266 277 277 261 288 291
359 0 1 3 2 4 11 15 14 15 15 8 7 356 347 338 304 329 343 343 331 324 303 311 321 338 346 355 287 151 179 244 237 249 288 291 281 280 269 267 269 275 278 281 286
354 355 358 359 0 3 8 8 7 9 6 346 349 351 351 346 340 338 345 343 334 332 333 338 331 328 309 306 234 204 238 249 283 282 291 288 286 276 254 263 253 261 281 281 303
348 350 353 356 358 0 2 357 359 356 2 350 311 332 345 3 24 342 337 337 341 349 39 46 11 9 353 329 300 294 262 266 284 299 302 286 288 291 253 266 274 269 262 288 292
341 345 350 353 355 358 358 353 343 338 3 10 354 349 13 29 357 349 337 343 357 33 47 41 34 3 338 301 314 215 270 311 295 298 300 291 278 292 292 324 293 271 272 256 272
335 341 346 350 353 354 356 353 342 315 334 352 3 5 25 46 4 353 347 29 31 49 43 37 14 348 304 273 254 298 297 292 316 322 310 311 359 23 345 353 332 293 262 229 264
329 338 340 348 350 351 352 348 350 349 322 345 355 5 34 10 4 359 11 34 24 22 55 35 18 14 329 315 320 299 321 316 289 341 308 339 23 9 1 1 13 10 254 194 347
324 331 339 342 347 347 346 331 329 350 94 25 11 6 70 355 359 3 13 38 7 0 79 36 27 29 14 317 339 352 31 354 299 339 336 355 12 13 8 10 12 12 34 176 342
318 326 338 338 344 343 346 325 328 306 191 16 22 39 25 347 359 3 4 12 24 73 89 49 32 30 5 2 354 13 303 322 314 352 350 39 358 15 13 14 11 7 12 15 10
313 325 335 334 342 343 349 150 54 52 315 325 17 74 10 343 357 1 26 33 37 117 97 46 39 43 17 20 342 308 331 308 278 332 15 55 31 18 16 16 6 10 9 359 359
312 323 331 333 339 344 351 178 266 44 66 74 61 64 347 348 1 7 12 36 31 47 20 17 40 1 312 293 259 266 247 270 268 290 47 70 36 14 8 15 9 8 4 358 1
311 324 327 335 337 343 344 254 212 157 96 65 42 22 2 357 358 6 12 44 33 29 344 22 27 324 307 343 330 300 295 311 304 282 345 76 49 11 17 22 6 6 2 1 4
307 323 324 335 335 347 352 359 157 151 94 44 33 11 2 3 33 3 10 16 42 29 7 89 299 332 353 345 354 330 284 335 284 308 16 252 24 13 3 10 7 10 9 8 359
306 320 326 332 334 342 345 141 165 164 73 344 353 11 352 97 44 7 14 22 24 19 343 345 331 354 335 5 5 302 335 324 294 277 23 8 342 19 355 357 8 6 3 359 356
301 317 323 329 324 337 330 171 174 140 16 359 1 356 21 71 330 9 17 39 32 338 24 301 327 344 346 338 334 260 319 298 268 278 62 1 71 357 2 1 357 356 355 354 354
296 310 320 321 325 343 0 139 142 46 259 29 13 359 18 22 12 346 18 31 31 10 4 302 296 311 312 307 281 320 3 306 12 49 41 327 73 357 9 344 342 343 349 352 353
285 300 309 323 329 343 130 138 30 128 75 11 346 6 91 5 0 18 33 29 43 16 14 325 316 321 357 346 323 354 39 356 5 15 229 35 58 206 358 359 343 338 345 347 350
274 291 299 317 327 344 154 54 97 240 116 197 74 57 66 8 27 356 34 19 26 55 48 20 345 10 348 23 300 341 49 108 196 340 294 3 2 154 30 0 350 350 348 349 358
256 287 298 304 314 268 129 71 212 202 145 148 100 67 38 48 73 44 25 5 20 14 86 1 287 326 20 331 5 324 38 292 262 219 335 322 335 87 6 357 357 352 352 355 357
225 286 289 296 301 239 83 172 151 184 134 89 117 160 20 351 52 48 6 314 343 27 9 274 299 312 311 14 3 75 315 26 6 22 349 331 27 286 341 353 349 349 352 352 354
178 95 276 290 290 7 158 163 153 161 133 68 152 117 99 101 89 69 270 312 5 348 59 37 121 296 50 20 358 345 11 11 227 120 142 309 310 267 356 348 339 341 344 350 351
148 104 224 292 358 44 98 141 135 157 101 89 106 115 129 118 102 111 265 195 3 24 19 1 144 280 225 305 273 71 357 34 103 315 69 180 290 276 11 351 345 339 340 347 353
139 136 181 232 195 105 145 56 108 148 145 167 110 109 118 117 79 175 170 135 29 35 18 264 339 355 348 359 18 33 356 327 248 66 44 85 299 319 354 347 349 343 341 346 351
139 113 171 185 143 142 157 170 129 99 124 123 122 110 100 105 70 199 177 84 349 21 27 146 95 158 192 209 149 348 340 332 41 66 296 240 310 329 342 342 343 345 344 345 349
137 157 173 184 153 147 102 143 144 159 125 159 104 183 143 106 36 205 111 6 48 15 48 93 140 168 276 266 184 227 259 334 55 179 178 292 306 301 336 328 331 337 342 347 349
141 145 152 144 155 134 180 205 166 154 143 219 174 137 132 127 164 214 141 155 207 14 63 360 233 91 314 236 1 253 282 341 332 307 266 298 291 348 325 327 338 342 350 347 346
159 153 146 163 162 136 202 172 184 137 163 190 151 118 126 153 125 111 95 125 129 141 70 76 94 43 285 352 351 1 253 272 275 228 218 322 267 325 325 331 333 344 353 344 344
Height
1539 1536 1533 1530 1526 1523 1520 1519 1518 1517 1516 1514 1513 1513 1511 1510 1509 1508 1504 1506 1503 1500 1495 1492 1491 1490 1488 1488 1487 1487 1494 1496 1483 1474 1466 1465 1464 1457 1458 1456 1453 1451 1449 1447 1443
1539 1536 1534 1530 1527 1523 1521 1520 1519 1518 1517 1516 1515 1513 1512 1510 1509 1508 1507 1503 1500 1495 1490 1489 1488 1488 1487 1487 1487 1487 1493 1483 1472 1469 1463 1461 1459 1454 1455 1451 1448 1445 1442 1443 1443
1539 1537 1534 1530 1527 1524 1522 1520 1519 1518 1517 1516 1515 1514 1513 1510 1509 1507 1504 1500 1493 1489 1485 1484 1486 1487 1487 1486 1485 1485 1487 1475 1468 1465 1461 1458 1452 1449 1449 1446 1440 1440 1438 1438 1439
1539 1537 1534 1530 1527 1525 1522 1521 1519 1518 1517 1515 1515 1514 1512 1511 1515 1507 1503 1498 1492 1488 1486 1486 1487 1488 1488 1488 1486 1487 1479 1474 1465 1461 1458 1453 1447 1445 1445 1439 1440 1438 1439 1437 1431
1538 1537 1534 1531 1527 1524 1523 1521 1520 1518 1517 1516 1514 1515 1514 1513 1513 1508 1500 1494 1492 1490 1488 1487 1487 1487 1488 1488 1485 1483 1477 1471 1463 1459 1454 1449 1446 1444 1441 1439 1432 1432 1436 1437 1431
1538 1536 1533 1530 1527 1524 1523 1521 1519 1518 1517 1516 1515 1515 1515 1515 1513 1507 1497 1494 1494 1492 1491 1491 1490 1490 1488 1486 1485 1479 1476 1468 1460 1456 1452 1449 1449 1447 1444 1435 1427 1428 1429 1433 1437
1537 1535 1533 1529 1526 1524 1523 1521 1519 1517 1517 1516 1515 1515 1515 1517 1511 1505 1499 1495 1493 1492 1491 1491 1491 1492 1491 1485 1481 1476 1475 1463 1460 1456 1451 1448 1452 1455 1448 1438 1428 1424 1428 1429 1431
1536 1534 1532 1530 1527 1524 1522 1520 1519 1518 1517 1516 1515 1514 1515 1515 1512 1504 1498 1495 1494 1492 1493 1493 1492 1492 1492 1489 1481 1480 1479 1476 1460 1458 1453 1449 1457 1460 1453 1443 1436 1432 1432 1433 1429
1535 1533 1531 1529 1526 1524 1521 1520 1519 1518 1517 1517 1517 1515 1518 1516 1511 1504 1499 1496 1495 1494 1493 1493 1492 1492 1491 1492 1491 1491 1495 1485 1470 1462 1459 1457 1462 1466 1459 1451 1444 1440 1435 1434 1431
1533 1532 1530 1529 1526 1524 1521 1520 1519 1518 1518 1518 1518 1520 1519 1518 1512 1507 1500 1498 1496 1495 1494 1494 1494 1496 1498 1499 1504 1496 1493 1487 1481 1469 1465 1466 1473 1468 1464 1459 1456 1447 1441 1435 1427
1532 1531 1530 1528 1525 1523 1521 1522 1523 1522 1519 1522 1525 1524 1524 1519 1515 1508 1500 1500 1498 1497 1501 1498 1503 1508 1505 1501 1497 1494 1493 1489 1477 1470 1471 1474 1473 1470 1469 1462 1453 1454 1448 1441 1435
1531 1530 1529 1526 1524 1522 1521 1519 1519 1522 1524 1524 1525 1524 1523 1519 1515 1510 1504 1502 1505 1509 1504 1506 1508 1506 1500 1496 1497 1491 1489 1485 1473 1468 1468 1470 1475 1476 1472 1472 1466 1463 1455 1446 1438
1530 1529 1528 1525 1524 1522 1520 1520 1519 1520 1521 1526 1525 1525 1523 1521 1521 1517 1511 1510 1511 1514 1513 1510 1507 1504 1500 1496 1493 1490 1488 1488 1487 1470 1464 1466 1470 1472 1472 1475 1474 1468 1461 1450 1445
1528 1528 1527 1525 1525 1521 1520 1519 1520 1522 1533 1529 1526 1528 1525 1521 1523 1522 1516 1515 1515 1518 1514 1512 1508 1506 1501 1494 1498 1496 1485 1486 1480 1470 1466 1471 1476 1480 1478 1473 1471 1465 1459 1454 1449
1526 1525 1526 1525 1522 1521 1522 1518 1521 1524 1541 1532 1529 1529 1528 1525 1532 1524 1521 1516 1523 1521 1518 1517 1513 1509 1502 1499 1496 1491 1484 1483 1476 1471 1475 1482 1482 1491 1481 1473 1470 1472 1469 1465 1456
1524 1523 1524 1525 1522 1520 1520 1520 1523 1534 1538 1532 1532 1533 1529 1531 1532 1528 1524 1521 1523 1523 1522 1521 1514 1512 1509 1499 1496 1490 1481 1477 1476 1482 1509 1489 1489 1500 1495 1500 1492 1485 1478 1467 1457
1522 1522 1522 1523 1523 1521 1521 1522 1536 1538 1533 1535 1538 1537 1537 1539 1537 1537 1540 1541 1545 1545 1555 1531 1515 1510 1508 1499 1496 1497 1497 1515 1500 1510 1505 1488 1494 1521 1511 1503 1500 1491 1479 1470 1461
1520 1520 1520 1521 1521 1521 1521 1525 1537 1532 1534 1538 1538 1539 1541 1544 1545 1545 1543 1553 1548 1553 1567 1553 1534 1524 1519 1517 1518 1510 1516 1539 1528 1524 1505 1486 1508 1505 1508 1507 1496 1492 1484 1475 1462
1518 1519 1520 1521 1521 1520 1522 1539 1534 1532 1536 1534 1537 1539 1543 1546 1549 1550 1557 1562 1555 1553 1566 1557 1542 1527 1524 1523 1518 1516 1528 1522 1533 1525 1508 1507 1507 1499 1505 1505 1500 1490 1483 1472 1461
1515 1517 1521 1521 1521 1520 1522 1532 1536 1537 1536 1535 1533 1544 1540 1550 1552 1560 1566 1559 1557 1554 1553 1558 1557 1529 1526 1524 1524 1525 1525 1529 1536 1543 1545 1513 1520 1517 1511 1504 1502 1496 1491 1483 1474
1512 1516 1520 1521 1521 1521 1529 1531 1535 1537 1536 1537 1542 1545 1547 1554 1555 1561 1565 1557 1555 1554 1555 1557 1565 1542 1530 1539 1541 1532 1542 1534 1535 1533 1542 1528 1524 1526 1523 1514 1505 1498 1494 1489 1482
1509 1516 1519 1520 1524 1528 1533 1531 1533 1536 1536 1537 1538 1540 1544 1550 1559 1563 1560 1558 1556 1555 1557 1559 1564 1568 1546 1539 1540 1542 1542 1542 1548 1543 1538 1534 1520 1524 1521 1522 1514 1503 1498 1485 1479
1505 1513 1516 1519 1525 1530 1531 1533 1532 1534 1535 1539 1540 1539 1543 1547 1559 1554 1555 1556 1557 1556 1555 1559 1575 1581 1555 1550 1544 1548 1549 1547 1544 1543 1549 1548 1521 1521 1519 1517 1515 1510 1499 1493 1485
1502 1513 1516 1516 1518 1522 1527 1530 1533 1533 1533 1536 1541 1539 1543 1549 1553 1556 1552 1555 1557 1556 1556 1557 1567 1572 1573 1562 1563 1565 1557 1551 1551 1553 1559 1548 1539 1522 1520 1516 1511 1505 1499 1494 1488
1495 1506 1509 1515 1516 1520 1522 1527 1531 1532 1534 1535 1539 1538 1542 1559 1560 1560 1552 1555 1558 1556 1558 1561 1572 1573 1559 1552 1551 1552 1559 1555 1560 1551 1555 1543 1547 1535 1527 1521 1514 1511 1506 1494 1487
1488 1498 1506 1511 1511 1517 1520 1525 1525 1528 1530 1535 1535 1538 1542 1547 1549 1558 1555 1557 1559 1558 1562 1562 1569 1565 1568 1551 1552 1547 1550 1552 1551 1548 1547 1546 1537 1531 1528 1521 1515 1510 1504 1498 1489
1483 1490 1495 1510 1512 1515 1512 1515 1518 1522 1530 1531 1531 1536 1542 1544 1543 1549 1550 1551 1555 1561 1565 1568 1575 1578 1574 1560 1565 1563 1562 1558 1552 1553 1552 1548 1538 1532 1525 1520 1516 1512 1506 1498 1491